Probability
0 0 0 0 0 0 0 0 0 0 0 0 0 0 0 0 0 0 0 0 0 0 0 0 0 0 0 0 0 0 0 0 0 0 0 0 0 0 0 0 0 0 0 0
0 0 0 0 0 0 0 0 0 0 0 0 0 0 0 0 0 0 0 0 0 0 0 0 0 0 0 0 0 0 0 0 0 0 0 0 0 0 0 0 0 0 0 0
0 0 0 0 0 0 0 0 0 0 0 0 0 0 0 0 0 0 0 0 0 0 0 0 0 0 0 0 0 0 0 0 0 0 0 0 0 0 0 0 0 0 0 0
0 0 0 0 0 0 0 0 0 0 0 0 0 0 0 0 0 0 0 0 0 0 0 0 0 0 0 0 0 0 0 0 0 0 0 0 0 0 0 0 0 0 0 0
0 0 0 0 0 0 0 0 0 0 0 0 0 0 0 0 0 0 0 0 0 0 0 0 0 0 0 0 0 0 0 0 0 0 0 0 0 0 0 0 0 0 0 0
0 0 0 0 0 0 0 0 0 0 0 0 0 0 0 0 0 0 0 0 0 0 0 0 0 0 0 0 0 0 0 0 0 0 0 0 0 0 0 0 0 0 0 0
0 0 0 0 0 0 0 0 0 0 0 0 0 0 0 0 0 0 0 0 0 0 0 0 0 0 0 0 0 0 0 0 0 0 0 0 0 0 0 0 0 0 0 0
0 0 0 0 0 0 0 0 0 0 0 0 0 0 0 0 0 0 0 0 0 0 0 0 0 0 0 0 0 0 0 0 0 0 0 0 0 0 0 0 0 0 0 0
0 0 0 0 0 0 0 0 0 0 0 0 0 0 0 0 0 0 0 0 0 0 0 0 0 0 0 0 0 0 0 0 0 0 0 0 0 0 0 0 0 0 0 0
0 0 0 0 0 0 0 0 0 0 0 0 0 0 0 0 0 0 0 0 0 0 0 0 0 0 0 0 0 0 0 0 0 0 0 0 0 0 0 0 0 0 0 0
0 0 0 0 0 0 0 0 0 0 0 0 0 0 0 0 0 0 0 0 0 0 0 0 0 0 0 0 0 0 0 0 0 0 0 0 0 0 0 0 0 0 0 0
0 0 0 0 0 0 0 0 0 0 0 0 0 0 0 0 0 0 0 0 0 0 0 0 0 0 0 0 0 0 0 0 0 0 0 0 0 0 0 0 0 0 0 0
0 0 0 0 0 0 0 0 0 0 0 0 0 0 0 0 0 0 0 0 0 0 0 0 0 0 0 0 0 0 0 0 0 0 0 0 0 0 0 0 0 0 0 0
0 0 0 0 0 0 0 0 0 0 0 0 0 0 0 0 0 0 0 0 0 0 0 0 0 0 0 0 0 0 0 0 0 0 0 0 0 0 0 0 0 0 0 0
0 0 0 0 0 0 0 0 0 0 0 0 0 0 0 0 0 0 0 0 0 0 0 0 0 0 0 0 0 0 0 0 0 0 0 0 0 0 0 0 0 0 0 0
0 0 0 0 0 0 0 0 0 0 0 0 0 0 0 0 0 0 0 0 0 0 0 0 0 0 0 0 0 0 0 0 0 0 0 0 0 0 0 0 0 0 0 0
0 0 0 0 0 0 0 0 0 0 0 0 0 0 0 0 0 0 0 0 0 0 0 0 0 0 0 0 0 0 0 0 0 0 0 0 0 0 0 0 0 0 0 0
0 0 0 0 0 0 0 0 0 0 0 0 0 0 0 0 0 0 0 0 0 0 0 0 0 0 0 0 0 0 0 0 0 0 0 0 0 0 0 0 0 0 0 0
0 0 0 0 0 0 0 0 0 0 0 0 0 0 0 0 0 0 0 0 0 0 0 0 0 0 0 0 0 0 0 0 0 0 0 0 0 0 0 0 0 0 0 0
0 0 0 0 0 0 0 0 0 0 0 0 0 0 0 0 0 0 0 0 0 0 0 0 0 0 0 0 0 0 0 0 0 0 0 0 0 0 0 0 0 0 0 0
0 0 0 0 0 0 0 0 0 0 0 0 0 0 0 0 0 0 0 0 0 0 0 0 0 0 0 0 0 0 0 0 0 0 0 0 0 0 0 0 0 0 0 0
0 0 0 0 0 0 0 0 0 0 0 0 0 0 0 0 0 0 0 0 0 0 0 0 0 0 0 0 0 0 0 0 0 0 0 0 0 0 0 0 0 0 0 0
0 0 0 0 0 0 0 0 0 0 0 0 0 0 0 0 0 0 0 0 0 0 0 0 0 0 0 0 0 0 0 0 0 0 0 0 0 0 0 0 0 0 0 0
0 0 0 0 0 0 0 0 0 0 0 0 0 0 0 0 0 0 0 0 0 0 0 0 0 0 0 0 0 0 0 0 0 0 0 0 0 0 0 0 0 0 0 0
0 0 0 0 0 0 0 0 0 0 0 0 0 0 0 0 0 0 0 0 0 0 0 0 0 0 0 0 0 0 0 0 0 0 0 0 0 0 0 0 0 0 0 0
0 0 0 0 0 0 0 0 0 0 0 0 0 0 0 0 0 0 0 0 0 0 0 0 0 0 0 0 0 0 0 0 0 0 0 0 0 0 0 0 0 0 0 0
Wind_Speed
8 9 15 16 15 5 5 6 7 6 4 5 10 14 14 10 7 9 10 10 11 14 14 10 11 12 11 12 14 16 16 16 13 11 12 12 12 10 9 9 10 11 10 11
9 19 15 8 9 8 6 7 6 3 2 4 7 13 12 12 11 12 14 14 14 13 11 10 10 11 14 15 16 17 18 16 17 14 13 9 9 8 9 8 10 12 12 12
18 7 10 9 9 12 13 12 9 5 1 3 5 12 11 11 11 12 12 13 12 14 15 13 12 13 14 16 18 17 19 19 18 16 8 6 6 5 8 10 12 13 14 13
13 6 8 10 12 14 17 10 8 6 4 5 4 12 10 9 13 15 15 14 15 15 15 13 12 13 16 18 17 18 19 19 18 16 13 15 14 15 16 12 10 11 14 14
12 10 12 14 13 13 6 6 8 9 8 8 6 12 12 6 13 14 14 15 16 16 16 16 15 16 16 16 15 16 17 18 17 17 18 18 17 15 9 8 10 11 12 14
6 6 10 10 7 9 5 3 2 5 7 16 17 13 16 10 14 9 10 13 15 16 16 16 15 13 13 12 12 13 15 17 17 19 20 20 21 18 12 12 13 12 10 11
8 7 5 5 7 8 8 7 5 8 11 13 10 12 17 9 11 13 13 13 14 14 14 15 14 13 13 12 13 13 15 17 17 19 20 21 22 20 20 17 15 12 11 12
11 10 13 10 11 11 14 13 11 8 7 4 6 15 15 7 9 9 11 11 10 12 12 13 13 13 13 13 13 13 15 17 17 18 20 19 19 16 15 17 14 14 12 13
12 9 5 9 7 12 10 13 9 4 3 6 8 9 13 6 8 10 11 11 13 14 13 13 13 12 12 12 13 14 15 16 16 18 18 17 18 17 16 15 15 11 11 9
8 5 4 4 4 7 9 8 6 9 8 10 9 9 11 7 10 10 12 14 16 13 12 12 11 11 10 10 10 11 13 15 15 15 15 13 16 18 16 13 14 13 13 11
6 6 3 6 12 13 10 10 9 6 6 7 8 11 9 12 10 10 12 13 12 12 12 11 10 9 8 8 8 9 10 11 11 13 13 13 13 14 13 13 14 13 11 12
7 5 5 7 4 4 7 10 12 10 9 6 7 13 5 7 7 8 10 10 10 10 9 9 9 8 7 7 7 8 9 10 11 11 11 12 11 11 12 13 13 11 12 11
10 7 5 2 2 4 6 8 10 8 5 7 10 14 5 5 6 7 8 9 9 9 9 8 8 8 8 7 7 8 8 9 8 8 9 9 10 11 12 12 11 10 10 10
9 6 8 12 7 7 7 9 10 10 9 11 14 17 18 13 11 11 9 9 9 9 9 9 9 8 8 7 7 7 8 7 6 7 8 9 10 11 10 9 9 9 9 10
6 6 6 6 5 5 7 10 13 16 15 13 15 19 24 17 12 12 10 9 10 11 11 11 10 9 8 7 7 7 7 6 6 7 8 9 8 7 7 7 8 8 8 9
5 5 4 5 6 6 8 11 13 16 15 17 17 23 21 16 12 12 12 11 12 13 13 12 11 10 9 9 8 7 7 6 6 7 8 6 6 6 7 7 6 7 7 7
6 6 5 5 3 2 11 14 14 12 12 13 20 24 16 15 15 14 12 11 12 13 12 12 11 11 10 9 8 8 7 5 6 7 6 6 6 6 6 5 6 6 6 6
8 7 4 3 3 11 11 8 12 14 17 17 17 18 17 16 15 13 11 11 13 13 12 11 10 10 9 7 6 5 5 5 6 6 6 6 6 6 5 5 6 6 4 5
7 8 5 5 6 8 10 7 9 11 15 15 18 20 17 13 11 16 13 12 13 12 11 11 10 9 8 7 5 5 5 5 6 7 7 7 7 7 6 7 6 5 4 4
5 6 5 5 6 10 11 7 7 5 13 10 12 15 12 7 9 15 9 8 10 10 9 9 8 7 7 6 5 5 6 7 8 8 7 6 7 7 7 7 5 4 4 4
7 6 8 8 8 11 10 4 6 8 12 6 6 8 7 8 12 13 11 9 8 9 9 8 7 7 7 5 5 7 7 9 8 5 5 5 6 7 6 5 4 5 4 5
10 8 8 7 9 13 6 6 10 9 4 4 4 5 6 10 12 12 11 11 9 9 9 7 6 8 6 4 5 7 8 6 5 5 5 5 5 5 5 6 5 5 6 6
10 11 9 11 11 7 6 8 6 2 4 5 5 6 7 10 12 13 12 11 10 9 8 6 6 7 5 4 5 7 6 4 5 5 5 5 5 5 5 6 7 6 5 5
5 3 5 6 9 8 7 5 5 4 5 6 6 7 7 10 12 13 12 11 10 9 8 6 5 6 6 4 3 4 3 4 6 6 6 5 6 6 5 4 5 5 6 6
7 5 5 8 8 6 7 6 6 7 6 7 8 7 8 10 12 12 12 11 10 9 7 5 5 6 6 4 3 2 3 5 5 6 6 6 5 6 5 4 4 4 3 5
6 7 7 9 6 6 7 4 5 7 8 9 10 11 9 8 11 12 11 10 8 8 7 5 5 4 4 3 3 2 2 4 6 6 6 5 5 5 5 5 4 5 5 6
Wind_Direction
178 198 210 205 203 210 180 193 213 219 210 205 238 250 255 254 240 245 248 241 237 240 242 232 221 216 211 208 206 207 207 207 200 202 205 209 214 213 213 213 209 205 204 201
188 220 216 189 191 205 212 225 230 253 227 222 261 264 256 249 240 233 239 242 239 243 248 236 222 212 211 212 212 211 211 207 204 207 207 208 209 213 215 213 211 209 207 204
208 210 180 185 194 205 219 224 223 223 322 277 300 281 248 249 241 240 237 239 239 236 242 240 227 217 213 215 214 212 212 211 208 206 198 194 196 205 209 212 215 212 208 207
224 216 175 189 204 201 231 215 209 212 220 248 215 275 256 235 248 243 239 236 239 240 240 238 230 224 217 218 215 213 213 212 209 203 201 201 207 215 218 214 214 208 207 210
211 185 188 205 207 191 213 169 193 209 224 250 223 260 268 202 243 245 238 235 238 238 237 237 232 229 225 220 215 213 212 212 207 204 205 207 215 220 217 206 208 209 209 211
213 184 191 203 196 182 148 118 190 211 223 245 231 234 266 206 226 238 234 233 235 237 238 240 239 233 231 223 216 213 211 214 208 205 207 209 215 216 210 206 211 213 212 212
207 209 200 160 156 169 167 171 211 216 220 240 202 217 254 214 210 218 228 234 235 236 239 241 239 234 231 225 217 212 211 215 210 207 209 211 215 215 215 213 214 211 211 213
196 212 195 186 184 183 191 189 209 219 221 252 190 224 250 224 223 229 235 241 244 243 241 242 240 235 233 229 221 214 213 216 211 209 212 214 215 215 219 218 215 213 215 216
190 218 185 192 174 165 184 207 208 229 247 258 242 260 286 254 246 245 247 249 249 248 246 244 244 239 234 231 224 215 215 217 213 211 211 213 214 215 217 216 215 215 215 211
158 194 199 173 147 198 188 166 173 204 218 242 247 239 245 244 234 236 240 245 251 253 254 254 250 246 240 234 229 221 217 218 216 212 211 213 213 215 217 214 213 213 213 206
155 173 183 174 192 191 178 189 199 205 206 219 249 252 229 234 229 231 241 247 255 260 260 261 259 254 247 241 230 224 221 219 216 212 211 213 214 214 215 216 216 215 212 206
163 162 201 216 224 198 200 202 199 212 223 221 248 264 248 241 250 244 252 258 261 263 268 270 269 265 255 245 237 230 224 220 218 212 209 212 213 210 212 217 217 212 211 208
155 170 182 235 238 198 212 212 215 225 224 226 242 263 276 273 277 267 264 271 275 277 280 279 274 265 257 250 241 233 228 225 220 208 206 208 208 208 213 216 214 210 209 207
155 169 194 208 200 178 201 210 207 213 229 237 237 259 276 278 280 281 277 276 277 277 277 277 274 268 260 252 242 235 233 224 212 204 206 210 211 210 212 211 208 207 205 205
157 192 209 229 214 195 215 221 215 221 225 233 245 251 262 267 269 271 273 274 276 277 276 272 271 270 265 259 250 238 233 219 202 202 209 215 210 205 203 203 202 200 202 205
155 174 182 237 228 223 243 239 231 233 235 240 253 260 259 267 269 269 266 264 268 271 271 271 270 265 258 251 247 240 233 215 194 204 214 209 198 197 199 199 194 193 197 198
163 152 169 227 221 229 246 227 225 230 225 226 242 253 264 266 264 262 262 262 263 268 271 269 266 262 256 247 237 233 229 207 194 202 206 196 189 193 196 189 187 194 197 193
163 161 166 186 168 229 240 213 211 229 241 235 242 254 257 259 267 269 258 254 261 263 266 267 266 263 256 247 235 226 211 199 198 201 200 190 182 188 184 181 191 191 183 184
172 166 171 183 214 258 275 234 199 211 246 236 241 253 260 265 282 277 262 251 255 259 260 260 257 255 257 250 229 203 205 200 200 205 202 193 182 181 183 189 190 184 175 178
178 166 170 185 201 228 241 222 196 191 257 245 238 252 264 265 268 273 277 264 262 265 265 267 270 265 257 246 207 195 207 204 212 210 203 190 178 177 185 189 182 171 165 169
167 184 200 209 226 250 248 216 146 196 244 252 230 247 260 244 248 275 294 287 271 271 276 278 279 270 259 237 194 205 211 217 213 192 181 178 176 176 174 169 166 158 157 153
176 180 194 190 218 246 230 165 194 229 260 286 279 271 278 277 280 287 290 290 290 288 287 287 279 272 268 230 198 213 225 218 181 171 171 175 169 162 160 159 160 157 156 155
198 192 187 195 217 232 189 204 227 259 273 280 286 294 290 289 290 292 293 293 293 290 288 286 274 273 273 245 212 218 224 185 169 164 169 167 160 160 160 163 164 161 161 163
238 207 193 228 246 247 247 253 268 271 271 284 288 292 292 288 291 294 295 295 293 296 295 293 281 272 274 264 237 226 207 173 164 168 168 163 161 162 161 163 165 167 170 170
208 190 208 238 255 276 267 259 282 292 298 301 300 293 291 292 293 295 295 294 294 298 301 291 271 267 270 270 255 229 186 168 167 166 166 162 163 163 161 159 162 166 172 177
201 198 207 235 236 232 257 282 306 300 298 302 304 303 302 292 290 295 293 294 296 298 300 295 285 274 277 277 267 256 205 176 166 167 167 164 163 159 157 150 128 109 122 128